sat.trackr.live / text

‹ back to catalog

STARLINK-5111

NORAD 56146 · 2023-046BG

PAYLOAD ACTIVE UNKNOWN

§ Identity

Operator
Country
US
Launch date
2023-03-29
Launch site
AFETR
Launch vehicle
Mass (kg)
RCS (m²)

Purposes: comms

External: N2YO · Heavens-Above · Gunter

§ Orbital elements

Epoch: 2026-05-25T02:03:23.469120Z

Period
94.27 min
Inclination
43.0050°
Eccentricity
0.0001374
Mean motion
15.27578257 rev/d
Perigee alt
482.1 km
Apogee alt
484.0 km
Semi-major
6,861.2 km
B*
2.2448e-5
RAAN
75.5588°
Arg perigee
263.1095°
Mean anomaly
96.9601°
Rev number
17,388

§ Raw data

STARLINK-51111 56146U 23046BG  26145.08568830  .00000356  00000+0  22448-4 0  99902 56146  43.0050  75.5588 0001374 263.1095  96.9601 15.27578257173882

JSON: /api/v1/satellites/56146 · /tle

For live sub-satellite position, see the globe view (requires WebGL).

§ Visibility from observer

Set your observer location to see the next 7 days of passes ≥ 10°. The values pass through the URL so the page stays shareable.

No JS? Fill the form by hand. The geolocation button needs JavaScript.